Home   Weather   Pointe-Noire   Past weeks

Flag for Congo Past Weather in Pointe-Noire, Congo — Yesterday and Last 2 Weeks

Now
82 °F

Passing clouds.


Feels Like: 91 °F
Forecast: 79 / 87 °F
Wind: 9 mph from Southwest

Location: Pointe Airport-Noire

Current Time: Apr 23, 2017 at 8:57:47 pm

Latest Report: Apr 23, 2017 at 8:00 pm


Visibility: N/A

Pressure: 29.89 "Hg

Humidity: 84%

Dew Point: 77 °F

Location of Pointe-NoireLocation

Past Weather in Pointe-Noire — Graph

°F

Pointe-Noire Temperature Yesterday

Maximum temperature yesterday: 88 °F (at 2:00 pm)
Minimum temperature yesterday: 77 °F (at 12:00 am)
Average temperature yesterday: 81 °F

High & Low Weather Summary for the Past Weeks

 TemperatureHumidityPressure
High91 °F (Apr 11, 2:00 pm)100% (Apr 10, 4:00 am)29.92 "Hg (Apr 10, 4:00 am)
Low77 °F (Apr 11, 7:00 am)59% (Apr 11, 12:00 pm)29.68 "Hg (Apr 10, 5:00 pm)
Average83 °F83%29.82 "Hg
* Reported Apr 8 7:00 pm — Apr 23 7:00 pm, Pointe-Noire, Weather by CustomWeather, © 2017

Note: Actual official high and low records may vary slightly from our data, if they occured in-between our weather recording intervals... More about our weather records

Advertising

Pointe-Noire Weather History for the Previous 24 Hours

Scroll right to see more
 ConditionsComfort  
Time TempWeatherWind HumidityBarometerVisibility
7:00 pm
Sun, Apr 23
82 °FPassing clouds.9 mph84%29.86 "HgN/A
6:00 pm82 °FScattered clouds.7 mph84%29.80 "HgN/A
5:00 pm84 °FScattered clouds.12 mph79%29.80 "HgN/A
4:00 pm88 °FPassing clouds.12 mph66%29.80 "HgN/A
3:00 pm88 °FScattered clouds.12 mph70%29.80 "HgN/A
2:00 pm88 °FScattered clouds.14 mph66%29.83 "HgN/A
12:00 pm88 °FScattered clouds.14 mph70%29.89 "HgN/A
11:00 am86 °FScattered clouds.10 mph75%29.92 "HgN/A
10:00 am86 °FPartly sunny.9 mph70%29.92 "HgN/A
9:00 am84 °FPartly sunny.6 mph79%29.92 "HgN/A
8:00 am82 °FPassing clouds.9 mph84%29.92 "HgN/A
7:00 am79 °FPassing clouds.5 mph94%29.89 "Hg5 mi
6:00 am79 °FThunderstorms. Partly cloudy.5 mph94%29.86 "Hg5 mi
5:00 am79 °FThunderstorms. Partly cloudy.3 mph94%29.86 "Hg5 mi
4:00 am79 °FPassing clouds.5 mph100%29.86 "Hg5 mi
3:00 am81 °FPassing clouds.2 mph89%29.86 "Hg5 mi
2:00 am81 °FPassing clouds.7 mph94%29.86 "Hg5 mi
1:00 am81 °FPassing clouds.7 mph94%29.86 "Hg5 mi
12:00 am84 °FPassing clouds.7 mph84%29.86 "HgN/A
9:00 pm
Sat, Apr 22
82 °FPassing clouds.7 mph89%29.83 "HgN/A
8:00 pm82 °FPassing clouds.7 mph84%29.80 "HgN/A
Weather by CustomWeather, © 2017

See weather overviewHow to use our weather pages